星链-34412(STARLINK-34412)

导读

STARLINK-34412是美国于2025年10月22日发射的Starlink星链卫星,星链是SpaceX打造的全球卫星互联网项目,旨在为全球偏远地区、高需求区域提供低成本、低延迟的高速宽带服务。该卫星是星链组网建设中的一员,助力星链完成近地轨道卫星互联网星座的部署拓展。

基本信息
目录编号:
66132
目录名称:
STARLINK-34412
国际标识:
2025-237U
轨道中心:
EARTH
卫星名称:
星链-34412
卫星全名:
星链-34412(STARLINK-34412)
卫星状态:
在轨 (已飞行328 天)
发射日期:
2025-10-22 UTC
国别 :
美国 (US)
星等 :
--
该卫星已列入 空间交会检测服务 Space Conjunction Data Service (SCDS) ,当前飞行风险评估等级: 无高风险
轨道信息
数据来源 国际轨道数据 AOE轨道数据
星历时间 2026-09-15T06:02:02+0800
8小时前
查看轨道信息
2026-09-12T22:00:00+0800
2天前
查看轨道信息
半长轴 6840.823km 6840.885km
偏心率 0.0002095 0.0001714
轨道倾角 53.158° 53.160°
近地点辐角 89.465° 74.121°
升交点赤经 237.742° 248.658°
平近点角 270.659° 342.118°
近地点 461.252km 461.575km
远地点 464.12km 463.921km
周期 93.847分钟 93.849分钟
每日圈数 15.34406 15.34385
详细信息
固有亮度:
5
最大亮度:
2.5
卫星平台:
Starlink V1.0
覆盖范围:
全球
运营商:
太空探索技术公司
运营商所在国:
美国
制造商(研发单位):
太空探索技术公司
制造商所在国:
美国
使用方式:
暂无
卫星简介
Starlink 计划是 SpaceX 推出的全球卫星互联网项目,通过发射低轨道卫星,为全球尤其是偏远地区提供高速、低延迟的互联网服务。自 2019 年起,Starlink 已部署数千颗卫星,旨在缩小全球数字鸿沟,推动互联网普及。该项目还为军事、航空等行业提供通信支持,带来广泛经济效益。
2D轨道图
3D轨道图
轨道高度分析图
轨道倾角分析图
轨道综合分析图
查看轨道综合分析图
交会数据列表
事件ID 空间交会对象 最接近时刻(TCA) 交会距离 交会风险概率(CRP) 交会风险指数(CRI) 操作
CDM_260915-045206-613206-875621
2026-09-15T
04:52:02+0000
1.792 km
极远距离
3.794054E-6 低风险 0.47
CDM_260917-072605-189106-613221
2026-09-17T
07:26:49+0000
1.595 km
极远距离
1.802251E-6 低风险 0.4
CDM_260915-195904-944506-613221
2026-09-15T
19:59:23+0000
2.663 km
极远距离
1.399405E-6 低风险 0.38
CDM_260910-181005-015906-613221
2026-09-10T
18:10:33+0000
2.846 km
极远距离
1.180494E-6 低风险 0.36
CDM_260916-132705-180906-613221
2026-09-16T
13:27:01+0000
2.876 km
极远距离
6.962303E-7 极低风险 0.32
与全量物体交会距离演化趋势 订阅飞行安全评估服务
与全量物体交会风险概率演化趋势 订阅飞行安全评估服务